Tracking 27371 objects as of 7-Jun-2023
HD Live streaming from Space Station
objects crossing your sky now

STARLINK-3095

Track STARLINK-3095 now!
10-day predictions
STARLINK-3095 is classified as:


NORAD ID: 49160
Int'l Code: 2021-082AG
Perigee: 577.0 km
Apogee: 581.4 km
Inclination: 70.0 °
Period: 96.1 minutes
Semi major axis: 6950 km
RCS: Unknown
Launch date: September 14, 2021
Source: United States (US)
Launch site: AIR FORCE WESTERN TEST RANGE (AFWTR)
Your satellite tracking list
Your tracking list is empty




NASA's NSSDC Master Catalog

Two Line Element Set (TLE):
1 49160U 21082AG  23157.80253568  .00000171  00000-0  22132-4 0  9991
2 49160  69.9996 313.1587 0003111 266.3720  93.7083 14.98330680 96221
Source of the keplerian elements: AFSPC